Riverside, CA

11:00 AM PDT on August 30, 2016 (GMT -0700)
Riverside Municipal

Weather History for KRAL - May, 2014

Change the Weather History Date:

Thursday, May 15, 2014

  Actual Average Record
Temperature  
Mean Temperature 83 °F 68 °F  
Max Temperature 103 °F 80 °F 103 °F (2014)
Min Temperature 62 °F 56 °F 41 °F (1933)
Degree Days  
Heating Degree Days 0 1  
Month to date heating degree days 7 19  
Since 1 July heating degree days 802 1439  
Cooling Degree Days 18 4  
Month to date cooling degree days 104 47  
Year to date cooling degree days 256 110  
Growing Degree Days 31 (Base 50)    
Moisture  
Dew Point 21 °F    
Average Humidity 18    
Maximum Humidity 32    
Minimum Humidity 3    
Precipitation  
Precipitation 0.00 in 0.01 in 0.26 in (1894)
Month to date precipitation 0.00 0.27  
Year to date precipitation 1.72 9.06  
Since 1 July precipitation 2.87  
Snow  
Snow 0.00 in - - ()
Month to date snowfall 0.0  
Year to date snowfall 0.0  
Snow Depth 0.00 in    
Sea Level Pressure  
Sea Level Pressure 29.95 in    
Wind  
Wind Speed 6 mph (ESE)    
Max Wind Speed 18 mph    
Max Gust Speed 24 mph    
Visibility 10 miles    
Events      
T = Trace of Precipitation, MM = Missing Value Source: NWS Daily Summary

Daily Weather History Graph

Daily Weather History Graph

Search for Another Location

Airport or City:

Trip Planner

Search our weather history database for the weather conditions in past years. The results will help you decide how hot, cold, wet, or windy it might be!

Date:

Astronomy

May. 15, 2014 Rise Set
Actual Time 5:48 AM PDT 7:44 PM PDT
Civil Twilight 5:20 AM PDT 8:12 PM PDT
Nautical Twilight 4:47 AM PDT 8:45 PM PDT
Astronomical Twilight 4:11 AM PDT 9:21 PM PDT
Moon 8:57 PM PDT (5/15) 6:38 AM PDT (5/15)
Length of Visible Light 14h 51m
Length of Day
13h 55m
Full, 99% of the Moon is Illuminated
May 15
Full
May 21
Last Quarter
May 28
New
Jun 5
First Quarter
Jun 12
Full

Hourly Weather History & Observations

Time (PDT) Temp. Dew Point Humidity Pressure Visibility Wind Dir Wind Speed Gust Speed Precip Events Conditions
12:53 AM 72.0 °F 28.0 °F 20% 29.99 in 10.0 mi ENE 4.6 mph - N/A   Clear
1:53 AM 68.0 °F 32.0 °F 26% 29.98 in 10.0 mi SSE 3.5 mph - N/A   Clear
2:53 AM 71.1 °F 26.1 °F 19% 29.97 in 10.0 mi ENE 5.8 mph - N/A   Clear
3:53 AM 64.9 °F 30.9 °F 28% 29.98 in 10.0 mi East 5.8 mph - N/A   Clear
4:53 AM 64.9 °F 28.9 °F 26% 29.98 in 10.0 mi ENE 4.6 mph - N/A   Clear
5:53 AM 62.1 °F 32.0 °F 32% 29.99 in 10.0 mi East 4.6 mph - N/A   Clear
6:53 AM 68.0 °F 28.9 °F 23% 30.00 in 10.0 mi ENE 3.5 mph - N/A   Clear
7:53 AM 73.9 °F 32.0 °F 21% 30.01 in 10.0 mi NE 3.5 mph - N/A   Clear
8:53 AM 82.0 °F 35.1 °F 18% 30.01 in 10.0 mi Calm Calm - N/A   Clear
9:53 AM 91.0 °F 19.9 °F 7% 30.00 in 10.0 mi Variable 4.6 mph - N/A   Clear
10:53 AM 96.1 °F 15.1 °F 5% 29.99 in 10.0 mi Variable 3.5 mph - N/A   Clear
12:53 PM 99.0 °F 9.0 °F 4% 29.96 in 10.0 mi Variable 4.6 mph - N/A   Clear
1:53 PM 100.9 °F 9.0 °F 4% 29.94 in 10.0 mi West 8.1 mph - N/A   Clear
2:53 PM 100.9 °F 3.0 °F 4% 29.91 in 10.0 mi Variable 3.5 mph - N/A   Clear
3:53 PM 100.9 °F 15.1 °F 4% 29.89 in 10.0 mi West 15.0 mph 23.0 mph N/A   Clear
4:53 PM 99.0 °F 15.1 °F 5% 29.89 in 10.0 mi West 15.0 mph 24.2 mph N/A   Clear
5:53 PM 97.0 °F 12.9 °F 5% 29.89 in 10.0 mi West 16.1 mph 24.2 mph N/A   Clear
6:53 PM 93.9 °F 12.9 °F 5% 29.89 in 10.0 mi West 17.3 mph 21.9 mph N/A   Clear
7:53 PM 89.1 °F 16.0 °F 7% 29.91 in 10.0 mi West 6.9 mph - N/A   Clear
8:53 PM 87.1 °F 15.1 °F 7% 29.93 in 10.0 mi WSW 6.9 mph - N/A   Clear
9:53 PM 82.0 °F 21.9 °F 11% 29.94 in 10.0 mi Calm Calm - N/A   Clear
10:53 PM 80.1 °F 25.0 °F 13% 29.95 in 10.0 mi SE 4.6 mph - N/A   Clear
11:53 PM 75.9 °F 26.1 °F 16% 29.95 in 10.0 mi ESE 4.6 mph - N/A   Clear